Language selection

My Weather Profile Weather Topics  | 

Atlantic - Newfoundland: Past 24 Hour Conditions

 

Natashquan Airport

10:00 PM EDT 27 September 2022
Disclaimer

This table is a summary of hourly weather conditions for the past 24 hours.
Please note that these observations might not always be representative of weather conditions over their associated marine area.

Date / Time
(EDT)
Wind(knots) Conditions Visibility(km) Pressure(kPa) Air tempC) Relative humidity(%) Dew pointC)
27 September 2022
22:00 E 3 Mist 2 101.0 12 99 12
21:00 E 2 Cloudy 15 101.1 12 98 11
20:00 ENE 4 Cloudy 11 101.1 11 98 11
19:00 ESE 3 Mostly Cloudy 15 101.1 12 97 11
18:00 E 5 Partly Cloudy 16 101.1 13 93 12
17:00 SSE 7 Sunny 16 101.1 15 84 13
16:00 S 11 Sunny 16 101.1 16 78 13
15:00 S 8 Cloudy 16 101.1 16 83 13
14:00 S 8 Sunny 16 101.2 17 80 14
13:00 SSW 10 gust 15 Mostly Cloudy 16 101.1 16 83 14
12:00 SSE 12 gust 17 Cloudy 16 101.2 15 90 13
11:00 S 12 Cloudy 16 101.1 14 93 13
10:00 S 10 Cloudy 15 101.0 13 99 13
9:00 S 11 Cloudy 16 101.1 13 99 13
8:00 S 10 Mist 5 101.0 13 100 13
7:00 S 14 Mist 3 101.0 13 100 13
6:00 S 10 gust 18 Light Rain 0.8 100.9 12 100 12
5:00 S 8 Fog 0.6 100.8 12 100 12
4:00 S 8 Mist 5 100.8 13 100 13
3:00 SE 5 Cloudy 16 100.7 12 100 12
2:00 S 6 Mist 1 100.7 12 100 12
1:00 SSW 9 Cloudy 16 100.6 13 100 13
0:00 S 7 Mist 2 100.5 13 100 13
26 September 2022
23:00 SE 6 Fog 0.8 100.5 13 100 13
22:00 ESE 6 Mist 2 100.5 12 100 12

Zoom-in to make a selection

Map of Atlantic - Newfoundland marine weather areas Banquereau - 44139 East Chedabucto Bay - 44488 West Chedabucto Bay - 44489 Blanc-Sablon Airport Cap Whittle Chevery Natashquan Airport Heath Point Îles de la Madeleine Airport Miscou Island Eskasoni (First Nations) Grand Étang Ingonish Beach North Mountain St.Paul Island J.A. Douglas McCurdy Sydney Airport Charlottetown Airport East Point North Cape Argentia Berry Hill Bonavista Burgeo Cape Race Corner Brook Daniel's Harbour Englee Ferolle Point La Scie Port aux Basques Sagona Island St. Anthony Airport St. John's Int'l Airport St. Lawrence Stephenville Airport Twillingate Winterland Branch Hill Wreckhouse Grates Cove Pool's Island Marticot Island Long Pond Cartwright Airport Mary's Harbour
Legend:
buoy Buoy
land station Land Station

Atlantic - Newfoundland Area

Another Region

What we are doing

Date modified: